User: anonymous   Login
Location: Asheville, NC
(35.6000°N, 82.5500°W)
Time: 16:52:08
(UTC-05:00)
Language:

PCSat - Orbit

View from above orbital plane
View from above orbital plane
View from above satellite
View from above satellite

Ground track
Ground track

The orbit data is extracted from the following two-line orbital elements,

1 26931U 01043C   18020.76118503 -.00000023 +00000-0 +22898-4 0  9990
2 26931 067.0501 249.8124 0005328 278.0889 081.9608 14.30491355851395
Epoch (UTC): 20 January 2018 18:16:06
Eccentricity: 0.0005328
inclination: 67.0501°
perigee height: 786 km
apogee height: 794 km
right ascension of ascending node: 249.8124°
argument of perigee: 278.0889°
revolutions per day: 14.30491355
mean anomaly at epoch: 81.9608°
orbit number at epoch: 85139

The dashed part of the orbit path shows where the satellite is in the earth's shadow,  

DLR